| time (UTC) | temp C | wind direction | speed KPH | gust KPH | rain 1hr cm | rain 24hr cm | rain mn cm | humidity % | barometer mb |
| 20260507050014 | 4 | 178 | 0.0 | 0.0 | 0.00 | 1.14 | 0.00 | 100 | 1007.7 |
| 20260507044530 | 4 | 192 | 0.0 | 0.0 | 0.00 | 1.27 | 0.00 | 100 | 1007.9 |
| 20260507043010 | 4 | 182 | 0.0 | 0.0 | 0.00 | 1.27 | 0.00 | 100 | 1008.0 |
| 20260507041509 | 4 | 182 | 0.0 | 0.0 | 0.00 | 1.27 | 0.00 | 100 | 1008.1 |
| 20260507040008 | 4 | 182 | 0.0 | 0.0 | 0.00 | 1.40 | 1.27 | 100 | 1008.1 |
| 20260507034506 | 5 | 281 | 0.0 | 0.0 | 0.00 | 1.40 | 1.27 | 100 | 1008.3 |
| 20260507033005 | 5 | 281 | 0.0 | 3.2 | 0.00 | 1.40 | 1.27 | 100 | 1008.3 |
| 20260507031504 | 5 | 277 | 0.0 | 0.0 | 0.00 | 1.40 | 1.27 | 100 | 1008.3 |
| 20260507030004 | 5 | 277 | 0.0 | 0.0 | 0.00 | 1.50 | 1.27 | 100 | 1008.1 |
| 20260507024502 | 5 | 277 | 0.0 | 0.0 | 0.00 | 1.50 | 1.27 | 100 | 1008.2 |
| 20260507023003 | 5 | 277 | 0.0 | 1.6 | 0.00 | 1.50 | 1.27 | 100 | 1008.4 |
| 20260507021501 | 5 | 277 | 0.0 | 1.6 | 0.00 | 1.50 | 1.27 | 100 | 1008.6 |
| 20260507020001 | 5 | 279 | 0.0 | 4.8 | 0.00 | 1.50 | 1.27 | 100 | 1008.8 |
| 20260507014603 | 5 | 348 | 0.0 | 0.0 | 0.00 | 1.50 | 1.27 | 100 | 1008.5 |
| 20260507013103 | 5 | 348 | 0.0 | 0.0 | 0.00 | 1.50 | 1.27 | 99 | 1008.4 |
| 20260507011600 | 5 | 348 | 0.0 | 0.0 | 0.00 | 1.50 | 1.27 | 99 | 1008.4 |
| 20260507010059 | 5 | 348 | 0.0 | 0.0 | 0.00 | 1.50 | 1.27 | 98 | 1008.3 |
| 20260507004600 | 5 | 348 | 0.0 | 0.0 | 0.00 | 1.50 | 1.27 | 98 | 1008.0 |
| 20260507003057 | 6 | 348 | 0.0 | 0.0 | 0.00 | 1.50 | 1.27 | 97 | 1007.9 |
| 20260507001600 | 6 | 348 | 0.0 | 0.0 | 0.00 | 1.50 | 1.27 | 97 | 1008.0 |
| 20260507000056 | 6 | 348 | 0.0 | 0.0 | 0.00 | 1.50 | 1.27 | 96 | 1008.0 |
| 20260506234557 | 6 | 348 | 0.0 | 0.0 | 0.00 | 1.50 | 1.27 | 96 | 1007.7 |
| 20260506233055 | 7 | 348 | 0.0 | 0.0 | 0.00 | 1.50 | 1.27 | 94 | 1007.6 |
| 20260506231554 | 7 | 348 | 0.0 | 0.0 | 0.00 | 1.50 | 1.27 | 93 | 1007.5 |
| 20260506230055 | 7 | 348 | 0.0 | 0.0 | 0.00 | 1.50 | 1.27 | 94 | 1007.5 |
| 20260506224603 | 7 | 348 | 0.0 | 0.0 | 0.00 | 1.50 | 1.27 | 92 | 1007.7 |
| 20260506223052 | 7 | 348 | 0.0 | 0.0 | 0.00 | 1.50 | 1.27 | 93 | 1007.6 |
| 20260506221554 | 7 | 348 | 0.0 | 1.6 | 0.00 | 1.50 | 1.27 | 92 | 1007.4 |
| 20260506220051 | 7 | 5 | 0.0 | 1.6 | 0.00 | 1.50 | 1.27 | 92 | 1007.7 |
| 20260506214606 | 7 | 5 | 0.0 | 3.2 | 0.00 | 1.50 | 1.27 | 93 | 1007.4 |
| 20260506213049 | 7 | 262 | 0.0 | 1.6 | 0.00 | 1.50 | 1.27 | 94 | 1007.8 |
| 20260506211549 | 7 | 247 | 0.0 | 1.6 | 0.00 | 1.50 | 1.27 | 94 | 1007.7 |
| 20260506210052 | 7 | 331 | 0.0 | 0.0 | 0.00 | 1.50 | 1.27 | 94 | 1007.8 |
| 20260506204551 | 7 | 343 | 1.6 | 4.8 | 0.00 | 1.50 | 1.27 | 95 | 1007.6 |
| 20260506203051 | 7 | 310 | 0.0 | 3.2 | 0.00 | 1.50 | 1.27 | 96 | 1007.7 |
| 20260506201549 | 7 | 52 | 0.0 | 3.2 | 0.00 | 1.50 | 1.27 | 96 | 1007.7 |
| 20260506200046 | 6 | 53 | 0.0 | 0.0 | 0.00 | 1.50 | 1.27 | 96 | 1007.5 |
| 20260506194558 | 7 | 53 | 0.0 | 0.0 | 0.00 | 1.52 | 1.27 | 96 | 1007.7 |
| 20260506193044 | 7 | 53 | 0.0 | 3.2 | 0.03 | 1.52 | 1.27 | 96 | 1007.7 |
| 20260506191544 | 7 | 30 | 0.0 | 3.2 | 0.05 | 1.52 | 1.27 | 99 | 1007.6 |
| 20260506190044 | 6 | 70 | 0.0 | 4.8 | 0.05 | 1.52 | 1.27 | 97 | 1007.7 |
| 20260506184540 | 6 | 5 | 0.0 | 1.6 | 0.05 | 1.52 | 1.27 | 99 | 1007.9 |
| 20260506183036 | 6 | 36 | 0.0 | 4.8 | 0.03 | 1.50 | 1.24 | 98 | 1008.1 |
| 20260506181537 | 6 | 355 | 0.0 | 3.2 | 0.05 | 1.45 | 1.22 | 99 | 1008.3 |
| 20260506180042 | 6 | 19 | 0.0 | 3.2 | 0.08 | 1.45 | 1.22 | 99 | 1008.5 |
| 20260506174536 | 6 | 344 | 0.0 | 4.8 | 0.10 | 1.55 | 1.22 | 99 | 1008.3 |
| 20260506173033 | 6 | 318 | 3.2 | 6.4 | 0.10 | 1.52 | 1.19 | 99 | 1008.5 |
| 20260506171549 | 6 | 5 | 0.0 | 4.8 | 0.13 | 1.50 | 1.17 | 99 | 1008.6 |
| 20260506170038 | 6 | 355 | 0.0 | 4.8 | 0.13 | 1.45 | 1.14 | 99 | 1008.9 |
| 20260506164534 | 6 | 329 | 0.0 | 4.8 | 0.15 | 1.42 | 1.12 | 99 | 1009.0 |
| 20260506163034 | 6 | 355 | 0.0 | 0.0 | 0.18 | 1.42 | 1.09 | 99 | 1009.1 |
| 20260506161529 | 6 | 342 | 0.0 | 0.0 | 0.18 | 1.37 | 1.04 | 99 | 1009.2 |
| 20260506160030 | 6 | 346 | 0.0 | 0.0 | 0.20 | 1.35 | 1.02 | 99 | 1009.2 |
| 20260506154527 | 6 | 341 | 0.0 | 0.0 | 0.20 | 1.30 | 0.97 | 99 | 1009.4 |
| 20260506153026 | 6 | 334 | 0.0 | 4.8 | 0.20 | 1.24 | 0.91 | 99 | 1009.5 |
| 20260506151532 | 6 | 327 | 0.0 | 1.6 | 0.18 | 1.19 | 0.86 | 99 | 1009.5 |
| 20260506150024 | 5 | 327 | 0.0 | 0.0 | 0.15 | 1.14 | 0.81 | 99 | 1009.8 |
| 20260506144523 | 6 | 327 | 0.0 | 0.0 | 0.15 | 1.09 | 0.76 | 99 | 1009.7 |
| 20260506143021 | 5 | 327 | 0.0 | 0.0 | 0.10 | 1.04 | 0.71 | 99 | 1009.6 |
| 20260506141520 | 5 | 327 | 0.0 | 1.6 | 0.13 | 1.02 | 0.69 | 99 | 1009.7 |
| 20260506140026 | 5 | 327 | 0.0 | 3.2 | 0.15 | 0.99 | 0.66 | 99 | 1009.7 |
| 20260506134518 | 5 | 248 | 0.0 | 0.0 | 0.13 | 1.02 | 0.61 | 99 | 1009.7 |
| 20260506133031 | 5 | 248 | 0.0 | 1.6 | 0.15 | 0.99 | 0.58 | 100 | 1009.7 |
| 20260506131520 | 5 | 240 | 0.0 | 1.6 | 0.13 | 0.94 | 0.53 | 99 | 1009.8 |
| 20260506130015 | 5 | 239 | 0.0 | 0.0 | 0.13 | 0.91 | 0.51 | 99 | 1009.8 |
| 20260506124513 | 5 | 276 | 0.0 | 1.6 | 0.13 | 0.94 | 0.46 | 99 | 1009.9 |
| 20260506123013 | 5 | 276 | 0.0 | 0.0 | 0.13 | 0.91 | 0.43 | 99 | 1009.5 |
| 20260506121509 | 6 | 276 | 0.0 | 1.6 | 0.13 | 0.89 | 0.41 | 99 | 1009.4 |
| 20260506120007 | 6 | 276 | 0.0 | 0.0 | 0.13 | 0.86 | 0.38 | 99 | 1009.6 |
| 20260506114505 | 6 | 276 | 0.0 | 3.2 | 0.10 | 0.81 | 0.33 | 99 | 1009.8 |
| 20260506113001 | 6 | 249 | 0.0 | 4.8 | 0.10 | 0.79 | 0.30 | 99 | 1010.1 |
| 20260506111607 | 6 | 267 | 0.0 | 1.6 | 0.08 | 0.76 | 0.28 | 99 | 1009.3 |
| 20260506110058 | 6 | 267 | 0.0 | 0.0 | 0.05 | 0.71 | 0.25 | 99 | 1009.2 |
| 20260506104600 | 6 | 267 | 0.0 | 4.8 | 0.03 | 0.71 | 0.23 | 99 | 1009.5 |
| 20260506103101 | 6 | 306 | 0.0 | 1.6 | 0.00 | 0.69 | 0.20 | 98 | 1009.3 |
| 20260506101556 | 6 | 286 | 0.0 | 3.2 | 0.00 | 0.69 | 0.20 | 99 | 1009.6 |
| 20260506100059 | 6 | 151 | 0.0 | 1.6 | 0.00 | 0.69 | 0.20 | 99 | 1009.4 |
| 20260506094553 | 6 | 184 | 0.0 | 6.4 | 0.00 | 0.69 | 0.20 | 99 | 1009.1 |
| 20260506093051 | 6 | 215 | 0.0 | 4.8 | 0.00 | 0.69 | 0.20 | 99 | 1008.9 |
| 20260506091552 | 7 | 109 | 0.0 | 3.2 | 0.00 | 0.69 | 0.20 | 99 | 1008.6 |
| 20260506090050 | 7 | 190 | 0.0 | 3.2 | 0.00 | 0.69 | 0.20 | 99 | 1009.2 |
| 20260506084553 | 7 | 180 | 0.0 | 6.4 | 0.00 | 0.69 | 0.20 | 99 | 1009.1 |
| 20260506083051 | 7 | 186 | 0.0 | 4.8 | 0.00 | 0.69 | 0.20 | 99 | 1008.9 |
| 20260506081549 | 7 | 186 | 0.0 | 3.2 | 0.00 | 0.69 | 0.20 | 99 | 1008.8 |
| 20260506073047 | 7 | 193 | 0.0 | 4.8 | 0.05 | 0.69 | 0.20 | 98 | 1008.6 |
| 20260506071542 | 7 | 202 | 0.0 | 6.4 | 0.05 | 0.69 | 0.20 | 97 | 1008.6 |
| 20260506061536 | 7 | 163 | 0.0 | 6.4 | 0.00 | 0.64 | 0.15 | 97 | 1008.3 |